This is the latest recevied weather packets stored in our database for station/object KC5DAQ-26. If no packets are shown the sender has not sent any weather packets the latest 10 day(s).
| Time | Temp. | Humidity | Pressure | Rain* | Wind** | Luminosity | Snow |
|---|---|---|---|---|---|---|---|
| 1787860768 | 36.11° C | 52% | 1016.1 hPa | 0 mm | - | 853 W/m² | - |
| 1787860706 | 36.11° C | 52% | 1016.1 hPa | 0 mm | - | 855 W/m² | - |
| 1787860648 | 36.11° C | 51% | 1016.2 hPa | 0 mm | - | 858 W/m² | - |
| 1787860587 | 36.11° C | 52% | 1016.2 hPa | 0 mm | - | 862 W/m² | - |
| 1787860526 | 35.56° C | 53% | 1016.2 hPa | 0 mm | - | 863 W/m² | - |
| 1787860467 | 35.56° C | 52% | 1016.3 hPa | 0 mm | - | 863 W/m² | - |
| 1787860407 | 35.56° C | 52% | 1016.2 hPa | 0 mm | - | 863 W/m² | - |
| 1787860346 | 35.56° C | 52% | 1016.3 hPa | 0 mm | - | 863 W/m² | - |
| 1787860287 | 36.11° C | 51% | 1016.3 hPa | 0 mm | - | 865 W/m² | - |
| 1787860227 | 36.11° C | 52% | 1016.4 hPa | 0 mm | - | 867 W/m² | - |
| 1787860168 | 36.11° C | 50% | 1016.4 hPa | 0 mm | - | 870 W/m² | - |
| 1787860106 | 36.11° C | 51% | 1016.3 hPa | 0 mm | - | 877 W/m² | - |
| 1787860047 | 36.11° C | 52% | 1016.4 hPa | 0 mm | - | 886 W/m² | - |
| 1787859987 | 36.11° C | 51% | 1016.4 hPa | 0 mm | - | 891 W/m² | - |
| 1787859926 | 36.11° C | 52% | 1016.4 hPa | 0 mm | - | 893 W/m² | - |
| 1787859867 | 36.11° C | 52% | 1016.4 hPa | 0 mm | - | 895 W/m² | - |
| 1787859807 | 36.11° C | 51% | 1016.4 hPa | 0 mm | - | 897 W/m² | - |
| 1787859746 | 36.11° C | 54% | 1016.5 hPa | 0 mm | - | 897 W/m² | - |
| 1787859687 | 36.11° C | 54% | 1016.5 hPa | 0 mm | - | 900 W/m² | - |
| 1787859627 | 36.11° C | 53% | 1016.5 hPa | 0 mm | - | 898 W/m² | - |
| 1787859566 | 36.11° C | 56% | 1016.4 hPa | 0 mm | - | 897 W/m² | - |
| 1787859506 | 36.11° C | 54% | 1016.5 hPa | 0 mm | - | 895 W/m² | - |
| 1787859447 | 36.11° C | 53% | 1016.4 hPa | 0 mm | - | 892 W/m² | - |
| 1787859387 | 36.11° C | 55% | 1016.5 hPa | 0 mm | - | 884 W/m² | - |
| 1787859326 | 35.56° C | 54% | 1016.5 hPa | 0 mm | - | 884 W/m² | - |
* Rain latest hour (hover to see other rain measurements)
** Current wind speed in m/s (hover to see current wind gust speed)